Weather History for Broomfield, CO

Change the Weather History Date:

Friday, December 23, 2011

  Actual Average Record
Temperature  
Mean Temperature 22 °F -  
Max Temperature 35 °F 42 °F 58 °F (1989)
Min Temperature 8 °F 23 °F -15 °F (1990)
Degree Days  
Heating Degree Days 44    
Moisture  
Dew Point 9 °F    
Average Humidity 58    
Maximum Humidity 92    
Minimum Humidity 38    
Precipitation  
Precipitation 0.00 in - - ()
Sea Level Pressure  
Sea Level Pressure 30.26 in    
Wind  
Wind Speed 5 mph (WSW)    
Max Wind Speed 15 mph    
Max Gust Speed -    
Visibility 10 miles    
Events      
Averages and records for this station are not official NWS values.
T = Trace of Precipitation, MM = Missing Value Source: NWS Daily Summary

Daily Weather History Graph

Daily Weather History Graph

Search for Another Location

Airport:

Trip Planner

Search our weather history database for the weather conditions in past years. The results will help you decide how hot, cold, wet, or windy it might be!

Date:

Astronomy

Dec. 23, 2011 Rise Set
Actual Time 7:19 AM MST 4:39 PM MST
Civil Twilight 6:48 AM MST 5:10 PM MST
Nautical Twilight 6:14 AM MST 5:44 PM MST
Astronomical Twilight 5:41 AM MST 6:17 PM MST
Moon 6:11 AM MST (12/23) 3:51 PM MST (12/23)
Length of Visible Light 10h 21m
Length of Day
9h 20m
Waning Crescent, 1% of the Moon is Illuminated
Dec 23
Waning Crescent
Dec 24
New
Dec 31
First Quarter
Jan 9
Full
Jan 16
Last Quarter

Hourly Weather History & Observations

Time (MST) Temp. Windchill Dew Point Humidity Pressure Visibility Wind Dir Wind Speed Gust Speed Precip Events Conditions
12:02 AM 10.4 °F 0.8 °F 6.8 °F 85% 30.26 in 10.0 mi SW 5.8 mph - N/A   Clear
12:22 AM 8.6 °F -1.3 °F 5.0 °F 85% 30.26 in 7.0 mi WSW 5.8 mph - N/A   Clear
12:42 AM 10.4 °F 0.8 °F 6.8 °F 85% 30.25 in 7.0 mi WSW 5.8 mph - N/A   Clear
1:02 AM 12.2 °F 4.3 °F 8.6 °F 85% 30.24 in 7.0 mi SW 4.6 mph - N/A   Clear
1:22 AM 12.2 °F 2.9 °F 10.4 °F 92% 30.25 in 10.0 mi SW 5.8 mph - N/A   Clear
1:42 AM 12.2 °F 4.3 °F 8.6 °F 85% 30.24 in 10.0 mi SSW 4.6 mph - N/A   Clear
2:02 AM 12.2 °F 4.3 °F 8.6 °F 85% 30.25 in 10.0 mi SW 4.6 mph - N/A   Clear
2:22 AM 14.0 °F 8.2 °F 8.6 °F 79% 30.25 in 10.0 mi SW 3.5 mph - N/A   Clear
2:42 AM 15.8 °F 8.6 °F 5.0 °F 62% 30.25 in 10.0 mi WSW 4.6 mph - N/A   Clear
3:02 AM 17.6 °F 12.3 °F 3.2 °F 53% 30.24 in 10.0 mi WSW 3.5 mph - N/A   Clear
3:22 AM 14.0 °F - 3.2 °F 62% 30.24 in 10.0 mi Calm Calm - N/A   Clear
3:42 AM 15.8 °F - 5.0 °F 62% 30.24 in 10.0 mi Calm Calm - N/A   Clear
4:02 AM 15.8 °F - 5.0 °F 62% 30.23 in 10.0 mi Calm Calm - N/A   Clear
4:22 AM 17.6 °F - 5.0 °F 58% 30.24 in 10.0 mi Calm Calm - N/A   Clear
4:42 AM 15.8 °F 10.2 °F 3.2 °F 58% 30.23 in 10.0 mi South 3.5 mph - N/A   Clear
5:50 AM 17.6 °F - -0.4 °F 45% 30.25 in 20.0 mi Calm Calm - N/A   Partly Cloudy
6:53 AM 15.8 °F 10.2 °F 1.4 °F 53% 30.25 in 60.0 mi Variable 3.5 mph - N/A   Clear
7:50 AM 19.4 °F 12.8 °F 1.4 °F 46% 30.26 in 70.0 mi SW 4.6 mph - N/A   Clear
8:45 AM 17.6 °F 12.3 °F 3.2 °F 53% 30.27 in 70.0 mi SW 3.5 mph - N/A   Clear
9:46 AM 21.2 °F 16.4 °F 10.4 °F 63% 30.28 in 70.0 mi Variable 3.5 mph - N/A   Clear
10:53 AM 28.4 °F 24.6 °F 12.2 °F 51% 30.28 in 70.0 mi Variable 3.5 mph - N/A   Clear
11:46 AM 30.2 °F 26.7 °F 15.8 °F 55% 30.26 in 70.0 mi Variable 3.5 mph - N/A   Clear
12:53 PM 32.0 °F 26.4 °F 17.6 °F 55% 30.25 in 70.0 mi SSW 5.8 mph - N/A   Clear
1:47 PM 35.6 °F 32.8 °F 15.8 °F 44% 30.24 in 50.0 mi SSW 3.5 mph - N/A   Clear
2:48 PM 32.0 °F 28.7 °F 17.6 °F 55% 30.24 in 70.0 mi SSW 3.5 mph - N/A   Clear
3:50 PM 32.0 °F 28.7 °F 15.8 °F 51% 30.26 in 70.0 mi West 3.5 mph - N/A   Clear
4:47 PM 28.4 °F 19.7 °F 15.8 °F 59% 30.27 in 60.0 mi NW 9.2 mph - N/A   Clear
5:47 PM 32.0 °F 28.7 °F 8.6 °F 38% 30.28 in 30.0 mi West 3.5 mph - N/A   Clear
6:49 PM 28.4 °F 20.4 °F 8.6 °F 43% 30.28 in 30.0 mi West 8.1 mph - N/A   Clear
7:47 PM 28.4 °F - 10.4 °F 47% 30.27 in 30.0 mi Calm Calm - N/A   Clear
8:46 PM 28.4 °F 22.2 °F 10.4 °F 47% 30.26 in 30.0 mi SW 5.8 mph - N/A   Clear
9:47 PM 30.2 °F 24.3 °F 8.6 °F 40% 30.28 in 30.0 mi West 5.8 mph - N/A   Clear
10:03 PM 32.0 °F 25.6 °F 12.2 °F 44% 30.29 in 10.0 mi WNW 6.9 mph - N/A   Clear
10:23 PM 32.0 °F 22.5 °F 12.2 °F 44% 30.29 in 10.0 mi NW 12.7 mph - N/A   Clear
10:42 PM 32.0 °F 21.6 °F 14.0 °F 48% 30.28 in 10.0 mi NW 15.0 mph - N/A   Clear
11:03 PM 32.0 °F 22.1 °F 14.0 °F 48% 30.29 in 10.0 mi NW 13.8 mph - N/A   Clear
11:23 PM 32.0 °F 27.5 °F 12.2 °F 44% 30.30 in 10.0 mi WNW 4.6 mph - N/A   Clear
11:41 PM 30.2 °F - 12.2 °F 47% 30.30 in 10.0 mi Calm Calm - N/A   Clear